Temp
63 63 63 63 63 63 63 63 63 62 62 62 63 62 62 63 62 55 48 54 59 66 63 53 55 55 55 52 52 50 42 38 43 43 47 50 50 52 54 52 53 55 54 54 53
62 62 62 62 62 62 62 63 62 62 62 62 62 62 62 62 53 50 60 65 66 65 54 52 51 53 49 49 48 45 39 43 44 44 45 47 48 49 50 50 51 52 52 51 51
61 61 61 62 62 62 62 62 62 62 62 61 62 62 62 57 49 48 64 65 65 61 53 52 52 52 47 47 45 43 41 44 43 45 46 47 47 48 48 48 53 52 51 49 50
61 60 61 61 61 62 62 62 62 61 61 61 62 62 61 52 40 51 63 63 63 57 53 51 50 46 43 43 46 43 44 45 45 45 45 44 45 47 47 51 52 53 52 50 49
60 59 60 60 61 61 62 62 61 61 61 61 62 62 54 48 45 56 60 58 55 54 50 49 47 45 42 43 44 42 42 45 44 44 43 44 43 44 45 50 50 50 50 49 50
59 59 59 59 60 61 61 61 61 61 61 62 62 62 51 44 55 55 54 55 53 51 48 49 47 47 44 42 42 42 43 42 44 44 44 42 42 43 47 47 47 48 48 48 49
59 59 59 59 59 60 60 60 61 61 62 62 63 57 50 46 53 54 54 51 51 50 48 48 48 47 44 41 44 43 40 40 42 43 42 42 41 41 46 47 47 47 48 48 48
59 58 58 58 59 59 60 60 61 61 62 63 63 53 43 55 54 54 53 52 53 53 51 50 50 47 44 44 42 39 38 35 40 41 42 43 40 46 47 46 48 48 47 47 48
58 58 58 58 58 58 59 60 61 62 63 62 51 49 42 58 51 51 51 49 50 51 51 55 48 41 42 37 33 33 27 34 37 39 39 41 40 45 46 46 46 47 47 47 47
58 58 58 58 58 58 59 60 60 60 58 58 55 47 49 45 49 50 50 50 48 47 47 45 39 35 32 30 26 29 30 35 34 36 36 36 38 45 45 45 45 46 46 46 46
58 57 58 58 58 58 55 53 50 47 48 42 41 42 44 49 49 49 49 48 47 44 34 38 31 26 30 33 34 33 32 31 34 35 34 33 32 41 44 42 41 42 42 42 44
57 57 57 58 58 57 49 44 41 44 40 44 44 44 45 44 43 47 50 43 37 31 36 32 27 34 36 36 35 34 29 28 34 34 34 30 32 40 38 39 39 41 41 41 42
55 57 57 57 57 50 44 42 45 43 40 42 43 43 43 46 40 43 46 40 34 30 29 30 32 38 36 32 33 29 27 27 28 32 29 26 31 36 38 39 40 41 40 39 39
55 56 57 57 52 45 42 45 46 43 27 37 40 43 45 43 40 46 45 41 35 27 32 31 35 35 33 31 31 27 31 31 29 23 20 25 21 32 34 36 38 39 38 38 38
54 56 56 57 47 43 44 45 44 44 18 37 39 48 44 41 39 43 44 42 34 31 30 28 30 31 28 31 33 29 31 29 25 14 16 20 15 29 32 36 38 38 38 39 39
55 56 56 50 44 42 44 43 44 29 19 30 37 36 36 37 38 40 41 42 37 34 33 30 33 31 31 33 32 32 26 24 19 12 10 9 14 25 32 33 35 37 37 38 38
54 54 51 48 41 44 43 42 28 23 32 28 31 35 32 31 35 34 34 30 27 21 17 27 28 30 32 30 31 27 16 9 11 9 13 1 12 24 32 33 34 35 35 36 37
54 51 48 46 43 44 41 32 21 23 23 33 33 33 29 30 30 32 31 25 30 26 13 12 16 22 31 28 24 23 16 12 5 8 12 3 11 30 32 33 33 33 34 35 35
54 46 44 44 45 42 36 22 23 27 33 32 32 24 22 30 27 25 24 23 27 26 19 14 18 28 30 30 27 22 13 22 4 -6 4 10 19 31 33 27 30 32 34 31 32
46 43 41 43 43 39 29 29 24 32 33 33 26 26 14 17 24 19 21 28 29 30 26 23 14 20 27 28 27 22 25 15 10 5 2 7 1 20 21 23 23 28 26 29 32
45 38 43 43 40 32 23 18 21 33 33 32 28 20 25 18 22 17 22 29 28 27 29 21 15 17 25 14 14 15 12 13 14 14 7 3 15 18 19 17 19 18 24 21 25
40 32 42 41 28 16 17 20 35 31 33 32 31 28 23 23 21 14 23 27 30 28 26 28 22 9 14 22 24 23 16 19 14 7 6 10 12 21 19 12 10 23 24 27 27
32 30 40 39 21 16 28 29 33 31 31 31 29 31 27 19 19 25 26 32 33 30 27 29 14 3 15 19 22 17 22 20 14 17 7 8 14 16 10 14 13 15 23 25 29
30 24 27 28 24 24 21 24 24 33 31 32 31 32 28 18 24 19 27 31 33 32 39 35 23 13 12 14 12 13 18 21 17 5 12 16 14 19 25 20 21 23 23 21 23
28 22 25 19 21 24 27 25 25 24 30 31 26 29 24 15 19 15 26 28 30 35 31 27 11 17 16 12 11 16 15 15 13 15 15 22 20 12 13 13 15 18 19 20 22
27 25 26 29 28 27 27 25 24 25 28 26 22 28 28 17 26 23 26 28 27 27 28 27 9 15 10 21 22 19 22 19 21 22 18 23 21 12 13 8 17 18 18 19 22
31 32 32 29 26 23 25 28 28 30 30 32 30 28 27 29 30 30 31 31 30 27 24 22 11 6 3 11 9 9 15 21 16 11 19 11 16 7 11 14 11 19 23 23 25
MSLP
1021.86 1021.56 1021.31 1021.05 1020.79 1020.45 1020.15 1019.86 1019.68 1019.61 1019.37 1019.09 1019.04 1018.95 1018.86 1018.72 1018.84 1019.00 1019.53 1019.72 1019.10 1018.67 1018.49 1018.57 1018.40 1018.36 1018.52 1019.06 1019.27 1019.65 1020.58 1021.17 1020.56 1020.60 1019.86 1019.77 1019.83 1019.78 1019.89 1020.24 1020.33 1020.56 1021.08 1021.48 1021.93
1021.89 1021.56 1021.44 1021.11 1020.83 1020.51 1020.14 1019.79 1019.53 1019.52 1019.29 1019.04 1018.96 1018.90 1018.76 1018.72 1019.05 1019.61 1019.64 1019.16 1018.86 1018.67 1018.77 1018.75 1018.81 1018.69 1019.22 1019.57 1019.91 1020.20 1021.11 1020.77 1020.51 1020.54 1020.49 1020.37 1020.30 1020.26 1020.32 1020.44 1020.53 1020.85 1021.36 1021.82 1022.27
1021.82 1021.69 1021.44 1021.11 1020.96 1020.46 1020.08 1019.75 1019.41 1019.30 1019.18 1019.00 1018.89 1018.88 1018.70 1018.69 1019.15 1019.72 1019.50 1019.09 1018.80 1018.69 1018.92 1018.92 1018.68 1018.88 1019.49 1019.72 1020.23 1020.54 1020.73 1020.72 1020.94 1020.96 1020.94 1020.83 1020.73 1020.71 1020.65 1020.57 1020.20 1020.58 1021.27 1022.03 1022.52
1021.77 1021.57 1021.40 1021.16 1020.95 1020.52 1020.07 1019.66 1019.37 1019.14 1019.03 1018.93 1018.86 1018.80 1018.59 1018.69 1019.80 1019.72 1019.45 1019.10 1018.79 1018.67 1018.80 1018.85 1018.77 1019.13 1019.74 1020.15 1020.31 1020.75 1020.93 1021.00 1021.31 1021.33 1021.22 1021.27 1021.26 1021.05 1020.92 1020.29 1020.33 1020.52 1020.96 1021.82 1022.32
1021.82 1021.48 1021.35 1021.09 1020.93 1020.47 1019.97 1019.54 1019.20 1018.96 1018.90 1018.89 1018.89 1018.75 1018.69 1019.14 1019.90 1019.60 1019.43 1019.10 1018.73 1018.72 1018.98 1018.91 1019.00 1019.46 1020.02 1020.37 1020.55 1020.75 1021.18 1021.41 1021.60 1021.64 1021.60 1021.53 1021.49 1021.47 1020.80 1020.36 1020.56 1020.74 1021.10 1021.48 1021.98
1021.73 1021.46 1021.19 1021.05 1020.78 1020.43 1019.84 1019.43 1019.08 1018.91 1018.83 1018.83 1018.83 1018.76 1018.80 1019.42 1019.78 1019.75 1019.54 1019.18 1019.13 1019.07 1019.28 1019.14 1019.38 1019.68 1020.41 1020.81 1020.93 1021.21 1021.43 1021.70 1021.89 1021.90 1021.80 1021.78 1021.57 1021.41 1020.41 1020.37 1020.55 1020.90 1021.14 1021.51 1021.83
1021.63 1021.40 1021.12 1020.89 1020.72 1020.30 1019.65 1019.30 1019.01 1018.85 1018.77 1018.74 1018.76 1018.85 1019.16 1019.99 1019.84 1019.75 1019.69 1019.55 1019.46 1019.37 1019.50 1019.59 1019.65 1019.96 1020.66 1021.25 1021.39 1021.51 1021.80 1021.87 1022.10 1022.13 1022.06 1021.99 1021.58 1021.11 1020.30 1020.41 1020.65 1020.95 1021.14 1021.44 1021.67
1021.44 1021.28 1021.13 1020.87 1020.56 1020.07 1019.59 1019.20 1018.91 1018.80 1018.72 1018.69 1018.70 1018.90 1019.72 1019.73 1019.79 1019.81 1019.81 1019.64 1019.56 1019.47 1019.62 1019.76 1019.80 1020.45 1021.23 1021.73 1022.03 1022.28 1022.34 1022.53 1022.54 1022.39 1022.21 1022.14 1021.39 1020.33 1020.20 1020.34 1020.56 1020.91 1021.16 1021.33 1021.41
1021.29 1021.27 1021.08 1020.75 1020.24 1019.87 1019.49 1019.14 1018.85 1018.66 1018.66 1018.69 1018.96 1019.04 1019.98 1019.70 1019.99 1020.25 1020.21 1020.16 1019.96 1019.81 1019.95 1019.92 1020.29 1021.78 1022.11 1022.57 1023.25 1023.49 1023.29 1023.17 1023.14 1023.27 1023.14 1022.66 1021.76 1020.58 1020.46 1020.58 1020.63 1020.81 1021.05 1021.14 1021.09
1021.17 1021.20 1020.94 1020.59 1020.09 1019.70 1019.34 1019.08 1018.94 1018.76 1018.89 1018.95 1019.33 1019.78 1020.24 1020.74 1020.64 1020.52 1020.30 1020.25 1020.29 1020.24 1020.41 1020.87 1021.71 1022.80 1023.75 1023.75 1024.31 1024.21 1024.13 1023.88 1024.00 1024.40 1023.87 1023.47 1022.16 1020.91 1020.81 1020.84 1020.56 1020.66 1020.84 1020.97 1020.97
1021.09 1021.08 1020.85 1020.44 1019.93 1019.78 1019.33 1019.24 1019.82 1019.94 1020.21 1020.74 1020.98 1020.92 1021.00 1020.99 1020.88 1020.80 1020.71 1020.61 1020.68 1021.13 1022.08 1022.57 1023.48 1024.59 1025.01 1024.73 1024.60 1024.57 1024.70 1024.92 1024.93 1025.35 1025.13 1024.47 1023.39 1021.17 1020.81 1020.76 1020.70 1020.85 1020.97 1020.94 1020.83
1020.90 1020.89 1020.63 1020.30 1020.05 1019.91 1019.95 1020.60 1021.28 1021.66 1021.74 1021.44 1021.26 1021.22 1021.28 1021.41 1021.15 1021.05 1020.82 1021.41 1021.85 1023.00 1023.35 1023.82 1025.00 1025.40 1025.17 1025.11 1025.17 1025.39 1025.74 1026.08 1025.95 1026.16 1026.09 1025.52 1023.68 1021.31 1020.98 1020.80 1020.86 1021.06 1021.28 1021.37 1021.16
1020.79 1020.71 1020.49 1020.21 1020.02 1020.38 1020.99 1021.68 1021.72 1021.57 1021.67 1021.87 1021.59 1021.46 1021.62 1021.50 1021.95 1021.88 1021.73 1022.31 1023.22 1024.28 1024.75 1025.00 1026.01 1025.59 1025.56 1026.01 1026.13 1026.79 1027.08 1027.41 1027.82 1027.49 1027.66 1026.84 1024.53 1022.29 1021.31 1021.16 1021.12 1021.35 1021.63 1021.73 1021.61
1020.73 1020.67 1020.32 1019.98 1020.44 1021.03 1021.57 1021.78 1021.70 1021.69 1022.38 1022.60 1021.86 1021.74 1021.81 1021.71 1022.33 1022.22 1022.24 1022.71 1023.92 1025.19 1025.62 1026.43 1026.39 1026.24 1026.36 1027.02 1027.36 1027.89 1028.22 1028.63 1029.07 1029.53 1029.91 1029.19 1027.13 1023.69 1022.53 1021.81 1021.59 1021.77 1022.00 1022.07 1021.93
1020.68 1020.50 1020.32 1019.83 1020.71 1021.52 1022.04 1021.80 1021.66 1021.79 1023.04 1023.18 1022.32 1021.79 1022.04 1022.47 1023.12 1022.67 1022.71 1022.62 1024.34 1025.66 1026.37 1027.61 1027.28 1027.17 1027.47 1028.05 1028.14 1028.89 1029.14 1029.90 1030.79 1031.55 1031.82 1031.17 1029.86 1024.76 1023.34 1022.71 1022.49 1022.41 1022.48 1022.58 1022.54
1020.67 1020.31 1020.38 1020.61 1021.34 1022.12 1021.87 1021.78 1021.86 1022.86 1023.71 1023.61 1023.11 1022.80 1022.92 1023.44 1023.74 1023.60 1023.23 1023.39 1024.78 1025.79 1026.82 1027.85 1027.84 1028.07 1028.28 1028.58 1028.82 1029.41 1030.24 1031.28 1032.29 1033.09 1033.85 1033.40 1031.79 1026.80 1024.69 1024.15 1023.51 1023.06 1023.17 1023.27 1023.19
1021.00 1020.65 1020.80 1021.11 1022.15 1022.08 1021.97 1022.21 1023.41 1024.06 1025.06 1024.85 1024.23 1024.06 1024.42 1025.13 1024.94 1024.97 1024.95 1025.34 1026.16 1027.14 1028.71 1028.85 1029.00 1028.93 1028.88 1029.11 1029.48 1030.17 1031.54 1033.06 1034.14 1034.89 1035.65 1035.11 1032.81 1027.29 1025.24 1024.71 1024.44 1024.43 1024.39 1024.25 1024.07
1021.05 1021.16 1022.02 1022.05 1022.17 1022.08 1022.33 1023.19 1024.72 1025.08 1025.12 1024.92 1024.87 1025.16 1025.69 1026.26 1026.44 1026.25 1026.29 1026.92 1027.05 1027.64 1029.75 1030.30 1030.41 1030.31 1029.92 1030.02 1030.51 1031.41 1032.42 1034.02 1035.83 1037.44 1036.51 1035.68 1032.36 1027.10 1025.89 1025.56 1025.21 1025.41 1025.45 1025.14 1024.95
1021.13 1021.73 1022.31 1022.67 1022.33 1022.23 1022.97 1024.80 1025.26 1025.36 1025.18 1025.29 1025.56 1026.15 1026.98 1027.04 1027.09 1027.28 1027.45 1027.74 1027.81 1028.18 1029.20 1030.27 1030.97 1030.97 1030.89 1030.92 1031.51 1032.16 1033.08 1033.93 1035.91 1038.29 1037.44 1034.68 1031.43 1027.73 1026.62 1026.54 1026.25 1026.12 1025.92 1026.13 1025.99
1021.66 1022.29 1023.12 1022.88 1022.58 1022.81 1024.21 1025.72 1026.24 1025.93 1025.62 1025.46 1026.20 1027.02 1028.18 1027.95 1028.07 1028.16 1028.28 1027.78 1028.02 1028.34 1028.88 1030.17 1031.22 1031.75 1031.60 1031.72 1032.07 1032.47 1033.32 1034.35 1035.45 1037.28 1037.05 1034.91 1032.79 1029.34 1028.10 1027.81 1027.84 1027.66 1027.71 1027.27 1026.68
1021.90 1022.64 1023.19 1022.98 1022.88 1023.78 1026.15 1027.03 1026.80 1026.37 1026.10 1025.89 1026.46 1027.50 1027.97 1028.49 1028.67 1029.02 1028.70 1028.09 1027.86 1028.33 1028.70 1030.01 1031.17 1032.49 1032.29 1032.24 1032.27 1033.14 1033.73 1034.68 1035.19 1035.74 1035.99 1035.35 1031.54 1028.47 1028.67 1028.84 1029.01 1028.89 1028.57 1028.00 1027.45
1022.39 1023.40 1023.51 1023.17 1024.48 1026.69 1027.53 1027.38 1027.15 1026.76 1026.37 1026.22 1026.47 1027.37 1028.13 1028.84 1029.27 1029.30 1028.54 1028.05 1027.73 1028.07 1028.94 1029.84 1031.14 1032.85 1032.68 1032.30 1032.10 1032.37 1033.05 1033.64 1034.88 1035.57 1035.55 1034.64 1030.71 1028.43 1028.62 1029.05 1029.51 1029.34 1028.81 1027.97 1027.51
1023.55 1024.28 1024.04 1023.77 1025.89 1027.78 1028.09 1027.87 1027.44 1026.92 1026.63 1026.56 1026.94 1027.39 1028.36 1029.16 1029.52 1029.04 1028.43 1027.83 1027.63 1027.87 1028.51 1029.46 1031.46 1032.64 1033.08 1033.16 1032.67 1032.64 1032.65 1033.05 1033.77 1033.98 1034.15 1033.71 1029.99 1028.45 1029.03 1029.54 1030.19 1030.07 1028.72 1028.33 1027.70
1024.50 1025.32 1025.54 1026.13 1027.34 1027.40 1028.19 1028.24 1027.81 1027.26 1026.84 1026.75 1026.98 1027.49 1028.41 1029.26 1029.45 1029.10 1028.49 1028.04 1027.87 1027.90 1028.19 1029.11 1030.94 1032.45 1032.75 1032.49 1032.35 1032.95 1032.47 1032.50 1032.81 1033.54 1032.64 1029.81 1029.12 1029.76 1029.39 1030.01 1029.73 1029.43 1029.13 1028.70 1027.99
1025.26 1026.87 1027.23 1027.76 1027.91 1027.78 1027.55 1027.83 1027.72 1027.55 1027.25 1027.09 1027.37 1027.57 1028.35 1029.37 1029.42 1029.46 1028.66 1028.31 1028.27 1028.23 1028.86 1029.98 1031.60 1032.57 1032.62 1032.69 1032.64 1032.21 1031.88 1032.05 1031.94 1031.29 1031.55 1027.43 1028.93 1030.43 1030.78 1031.13 1030.55 1029.92 1029.02 1028.47 1027.78
1025.50 1026.47 1027.49 1027.99 1027.72 1027.86 1027.82 1027.48 1027.05 1027.16 1027.07 1027.30 1027.45 1027.50 1028.10 1028.65 1028.61 1028.54 1028.52 1028.56 1028.53 1029.16 1029.65 1030.67 1032.02 1033.43 1033.35 1032.60 1032.23 1031.50 1031.04 1030.77 1030.30 1030.26 1029.81 1029.93 1028.28 1029.89 1030.46 1030.63 1030.31 1029.55 1028.76 1028.05 1027.23
1025.72 1025.95 1026.26 1027.90 1027.78 1027.74 1027.14 1026.97 1026.84 1026.78 1027.14 1026.82 1027.08 1027.46 1027.95 1028.01 1028.17 1028.33 1028.45 1028.65 1028.94 1029.45 1030.35 1031.38 1032.52 1034.17 1034.25 1033.60 1032.73 1031.08 1028.69 1028.47 1028.60 1028.74 1029.11 1029.89 1029.78 1030.29 1030.59 1030.27 1029.93 1029.04 1028.07 1027.37 1026.62
Wind_Speed
13 15 14 14 14 14 13 13 14 13 11 9 6 6 7 7 4 5 5 4 7 12 8 3 2 3 4 4 4 2 5 2 3 5 2 3 2 1 1 3 2 2 2 0 11
12 13 13 14 13 13 13 13 12 13 11 8 6 5 5 4 3 7 2 11 9 7 4 2 3 2 4 3 4 5 4 8 1 2 1 2 1 2 1 2 3 1 2 5 13
11 13 13 14 14 13 14 13 12 12 10 6 4 4 4 2 2 2 10 12 9 2 2 0 2 2 3 2 2 1 4 2 1 1 0 1 1 3 2 5 6 6 5 9 9
10 11 13 13 14 14 14 13 12 10 7 4 3 4 2 2 1 2 14 12 7 4 2 1 3 4 4 3 1 3 1 1 1 1 1 2 4 5 3 3 2 2 4 9 13
8 10 11 13 14 15 14 13 11 8 5 2 3 3 1 5 2 4 13 9 3 2 4 2 4 3 5 4 3 2 2 3 1 3 1 2 3 4 8 8 5 2 6 10 10
8 9 9 12 14 15 14 14 10 5 3 3 3 0 1 3 3 6 8 4 4 4 3 5 3 3 6 3 3 2 3 2 3 3 2 3 2 3 2 1 2 4 6 7 10
9 9 10 11 14 15 15 14 8 3 2 2 2 1 6 3 2 5 7 2 3 2 3 1 2 3 3 4 1 3 2 2 5 4 3 1 3 7 4 3 3 5 5 6 8
9 10 10 11 13 15 16 13 3 2 1 1 1 2 3 1 1 5 7 2 5 3 4 1 4 7 4 2 6 4 4 2 2 7 2 2 7 2 2 0 4 4 5 6 7
8 9 10 11 12 14 15 9 3 0 2 1 1 3 2 3 4 4 4 3 4 2 5 3 6 4 5 4 5 7 2 1 0 4 4 4 6 3 2 4 8 6 6 6 7
7 9 10 11 12 14 13 4 5 3 5 2 2 4 5 3 4 4 3 3 5 1 4 8 6 5 5 6 3 1 3 2 2 7 5 4 12 12 6 7 10 7 6 7 7
6 7 10 11 12 12 6 2 4 4 10 4 0 2 2 6 2 6 4 3 3 8 4 5 9 3 2 2 1 2 2 1 1 3 5 2 9 20 8 7 8 8 7 7 8
5 6 9 11 11 8 3 5 2 2 6 3 2 2 1 1 3 9 5 4 7 4 4 8 4 2 1 4 4 5 2 3 4 3 2 6 18 12 5 4 3 3 6 7 7
3 7 9 9 2 5 4 3 2 1 5 3 2 3 3 4 3 8 5 3 6 6 5 7 0 3 3 6 5 4 3 2 3 6 3 8 9 6 4 4 3 4 3 4 6
3 6 8 4 3 1 3 3 2 1 7 5 4 4 2 1 5 2 4 3 6 5 4 6 4 3 4 5 2 2 2 2 3 5 2 6 6 8 6 9 5 6 5 7 7
2 3 7 4 5 3 1 3 1 3 4 3 4 2 2 5 2 6 3 6 4 3 6 4 4 6 7 2 2 2 3 3 3 4 4 7 5 10 5 6 6 8 8 7 6
4 2 2 4 4 1 2 2 2 9 5 2 3 5 5 7 5 7 5 8 4 5 7 3 1 4 2 2 3 3 3 5 4 4 5 4 3 8 2 4 7 6 8 8 7
8 12 6 1 2 3 2 3 7 4 3 4 2 3 4 5 4 7 5 7 3 6 4 5 3 3 3 1 1 5 7 5 8 7 5 3 2 11 5 6 5 8 10 11 7
7 7 7 3 2 1 3 8 4 2 5 1 1 2 4 4 4 7 3 3 5 5 5 5 7 4 6 3 4 4 6 7 5 2 6 3 5 7 2 7 7 3 7 8 10
4 3 3 5 4 2 6 5 8 5 3 6 3 5 4 1 4 4 3 2 1 2 6 5 3 2 4 2 3 3 4 4 9 2 4 3 9 10 3 1 7 10 11 11 9
2 2 2 7 3 4 7 4 2 1 1 1 4 2 4 3 3 5 1 2 1 2 3 4 4 2 2 1 5 4 3 5 4 2 4 5 7 7 4 7 6 9 8 9 7
3 3 2 5 3 7 4 5 2 3 1 2 4 3 1 4 3 2 3 1 2 1 4 5 5 6 1 3 7 3 3 5 4 4 6 2 9 9 8 7 1 5 5 6 7
2 3 3 2 6 2 3 5 2 2 2 2 4 3 4 4 3 2 3 5 0 4 3 1 5 2 7 1 1 4 6 4 6 6 1 2 11 4 7 5 4 7 7 6 6
3 0 3 3 3 1 1 2 1 1 1 2 2 2 2 3 3 2 3 1 4 2 5 5 2 4 9 6 5 3 5 4 3 2 7 5 9 2 3 2 3 6 8 8 11
4 3 5 5 1 7 5 2 2 1 1 2 3 3 3 3 3 4 4 0 1 0 2 4 3 8 9 9 5 3 4 5 6 4 5 15 9 7 12 14 13 12 8 6 8
4 1 4 2 4 2 3 5 4 3 2 1 4 3 5 3 2 2 1 1 1 1 2 4 4 2 6 5 3 7 7 7 10 8 9 16 15 4 5 3 5 6 8 8 8
4 5 3 2 0 1 3 4 7 3 5 2 4 4 4 6 5 7 6 4 5 0 5 1 3 1 5 7 8 15 11 15 19 17 15 19 31 3 4 4 7 9 8 9 10
1 2 4 1 2 3 4 5 6 6 2 1 5 5 3 4 5 1 3 1 3 6 5 4 4 3 8 4 6 10 14 18 6 4 9 9 7 2 5 7 6 9 13 12 13
Wind_Direction
2 2 1 360 356 355 354 348 346 342 342 343 342 350 351 357 24 33 39 273 317 322 338 291 5 46 39 64 43 109 66 172 226 163 235 3 166 14 331 121 234 190 144 355 127
357 2 351 351 349 348 344 341 342 334 332 333 333 344 357 9 87 56 272 337 331 340 22 78 97 94 49 62 20 87 121 215 181 172 179 309 332 346 110 181 229 237 75 106 140
354 353 349 350 345 343 341 339 340 331 326 319 323 339 355 59 86 343 338 339 334 24 141 136 108 80 80 57 31 132 173 176 157 50 317 283 265 320 207 235 221 202 164 154 164
349 350 347 346 343 340 340 341 338 336 330 315 324 339 3 100 110 288 339 335 343 130 142 114 82 77 96 126 40 106 82 100 149 12 23 314 317 310 230 225 42 273 153 166 179
337 344 342 342 337 335 337 338 339 344 343 326 327 339 114 55 37 324 338 337 28 59 59 83 77 115 129 120 109 102 140 65 53 43 49 314 265 263 261 262 272 38 159 183 192
331 336 337 335 336 329 334 334 332 331 337 323 322 53 103 92 309 341 338 353 33 51 27 39 121 135 102 80 97 123 93 84 28 11 36 1 292 8 243 13 233 212 209 201 202
329 334 333 333 330 328 334 332 319 308 325 323 339 102 58 134 9 342 6 10 356 41 96 58 129 79 127 97 130 114 94 87 16 356 356 348 254 236 257 304 300 231 241 225 218
331 332 328 327 326 332 334 330 313 300 325 26 78 72 89 330 191 23 344 8 6 29 82 59 88 99 59 132 31 54 47 70 4 358 353 11 275 306 28 309 293 267 252 247 240
324 325 322 325 333 329 330 321 332 218 353 41 53 100 104 338 40 321 27 1 313 41 36 74 67 81 30 73 27 15 161 32 33 46 327 40 276 267 19 351 290 277 264 256 258
322 321 324 325 333 328 324 285 17 53 9 51 57 56 11 326 309 340 335 16 54 44 28 40 49 70 32 51 212 269 39 344 309 342 356 314 273 283 263 264 268 277 273 269 257
304 323 318 327 336 333 351 36 20 1 39 88 238 97 350 303 279 359 5 4 12 49 59 11 66 74 6 13 59 104 84 341 19 357 335 336 286 283 298 253 279 282 286 282 276
310 316 319 327 323 351 52 74 72 172 90 14 90 72 75 309 17 350 7 76 62 73 339 29 76 321 91 30 81 55 86 334 296 22 347 353 291 290 297 263 230 297 313 313 307
296 324 319 319 59 40 71 92 329 311 90 21 49 54 323 25 67 330 23 71 84 52 21 104 166 340 109 34 54 44 106 16 252 330 75 318 301 323 317 346 334 313 344 333 315
309 306 321 304 56 201 52 326 342 326 76 313 344 3 0 42 50 323 12 114 40 144 83 77 337 60 70 72 34 74 346 29 14 41 287 11 278 304 344 331 14 355 347 344 348
298 295 51 59 139 63 304 316 3 52 50 307 335 289 29 75 310 0 349 29 76 83 83 256 19 40 62 15 14 133 44 61 71 85 58 351 74 272 356 11 4 1 350 343 348
359 82 82 35 57 350 326 319 58 46 260 337 312 347 44 20 21 313 30 43 136 80 38 110 66 58 109 90 65 108 79 41 58 85 41 269 91 292 354 333 320 319 338 340 340
63 60 59 39 111 319 23 41 44 126 344 285 12 27 90 3 27 25 29 21 80 75 353 354 7 354 34 114 54 66 54 348 2 11 213 328 18 242 289 304 274 324 343 342 345
81 51 49 53 342 34 55 51 91 232 217 180 104 76 88 353 34 357 71 45 45 78 98 127 334 4 346 74 168 54 132 146 204 265 272 354 240 245 140 327 335 30 332 360 9
83 39 39 346 351 47 72 69 205 195 139 156 82 72 343 52 122 70 33 144 335 56 136 122 299 318 29 27 69 246 55 162 102 64 37 267 291 315 117 83 31 35 36 22 5
77 79 24 320 358 59 75 219 139 300 323 133 150 123 160 265 96 67 337 244 214 356 143 196 57 260 267 74 32 130 143 52 5 91 294 290 271 241 312 343 -0 28 9 357 352
65 64 298 348 46 48 144 204 237 257 320 89 161 118 155 159 118 150 181 220 142 105 81 128 95 283 98 188 180 19 10 45 114 125 172 246 263 213 208 209 189 297 289 285 301
80 53 328 20 53 29 114 179 166 13 10 37 99 113 146 161 105 109 176 199 106 153 84 99 130 185 217 282 214 156 190 154 128 258 221 151 269 197 219 197 176 357 330 334 331
86 151 345 78 122 358 127 116 147 119 84 123 95 49 120 150 83 187 206 123 139 132 164 182 328 17 342 357 350 216 204 145 120 84 204 153 252 334 322 41 303 253 352 350 340
82 36 337 47 19 131 144 171 94 265 135 95 130 115 125 49 356 175 205 134 159 153 120 132 149 169 193 207 142 186 203 199 142 138 197 228 267 324 329 357 355 357 339 324 312
37 225 184 274 332 99 117 143 141 173 318 40 14 177 159 121 55 225 213 188 68 296 92 109 195 232 257 204 195 210 195 198 202 197 205 265 254 214 253 271 271 270 302 315 305
117 132 14 125 154 131 330 216 156 199 147 243 149 167 156 156 189 194 159 194 198 95 157 65 259 89 277 285 253 267 240 220 232 239 256 269 276 207 231 293 327 309 297 286 286
346 42 97 292 148 108 215 174 199 144 235 157 167 128 184 220 195 164 215 169 155 162 173 155 131 69 270 344 334 299 234 220 194 197 206 220 251 296 317 300 279 292 293 291 293